Torna al catalogo

PSLV-C51 PS4

AttivoSSO
NORAD 47700·ROCKET BODY·🇮🇳 India
Questo nome del satellite non è ancora stato confermato da fonti ufficiali.

Lanciato Feb 28, 2021 da Satish Dhawan Space Centre

Loading…

Prossimi Passaggi (prossime 24 ore)

TLE

AggiornatoSource: Space-Track

Epoca: Sep 14, 2026, 16:19 UTC

1 47700U 21015B   26257.68031188  .00009770  00000-0  20387-3 0  9990
2 47700  97.1135 290.7615 0019581 306.4064  53.5380 15.45530717308231

Traccia PSLV-C51 PS4 in tempo reale con AllMySat

Download on the App Store